owner,sensor,date,latitude,longitude,vertical_datum,wind_speed,wind_to_direction,wind_speed_of_gust,qcFlag 
TCOON,ioos:station:TCOON:003:1,2017-08-01T00:00:00Z,26.8015,-97.4706,0.0,6.1,108.0,7.5,'11111222,11111222,11111222' 
TCOON,ioos:station:TCOON:003:1,2017-08-01T00:06:00Z,26.8015,-97.4706,0.0,6.4,104.0,7.6,'11111222,11111222,11111222' 
TCOON,ioos:station:TCOON:003:1,2017-08-01T00:12:00Z,26.8015,-97.4706,0.0,6.2,108.0,8.5,'11111222,11111222,11111222' 
TCOON,ioos:station:TCOON:003:1,2017-08-01T00:18:00Z,26.8015,-97.4706,0.0,6.2,108.0,8.5,'1111122,1111122,1111122' 
TCOON,ioos:station:TCOON:003:1,2017-08-01T00:24:00Z,26.8015,-97.4706,0.0,6.3,106.0,7.7,'11111222,11111222,11111222' 
TCOON,ioos:station:TCOON:003:1,2017-08-01T00:30:00Z,26.8015,-97.4706,0.0,6.1,101.0,7.9,'11111222,11111222,11111222' 
TCOON,ioos:station:TCOON:003:1,2017-08-01T00:36:00Z,26.8015,-97.4706,0.0,6.0,95.0,7.5,'11111222,11111222,11111222' 
TCOON,ioos:station:TCOON:003:1,2017-08-01T00:42:00Z,26.8015,-97.4706,0.0,7.0,101.0,8.6,'11111222,11111222,11111222' 
TCOON,ioos:station:TCOON:003:1,2017-08-01T00:48:00Z,26.8015,-97.4706,0.0,6.1,99.0,8.1,'11111222,11111222,11111222' 
TCOON,ioos:station:TCOON:003:1,2017-08-01T00:54:00Z,26.8015,-97.4706,0.0,6.2,100.0,7.8,'11111222,11111222,11111222' 
TCOON,ioos:station:TCOON:003:1,2017-08-01T01:00:00Z,26.8015,-97.4706,0.0,7.2,104.0,8.4,'11111222,11111222,11111222' 
TCOON,ioos:station:TCOON:003:1,2017-08-01T01:06:00Z,26.8015,-97.4706,0.0,7.3,103.0,8.6,'11111222,11111222,11111222' 
TCOON,ioos:station:TCOON:003:1,2017-08-01T01:12:00Z,26.8015,-97.4706,0.0,6.4,108.0,7.8,'11111222,11111222,11111222' 
TCOON,ioos:station:TCOON:003:1,2017-08-01T01:18:00Z,26.8015,-97.4706,0.0,6.4,108.0,7.8,'1111122,1111122,1111122' 
TCOON,ioos:station:TCOON:003:1,2017-08-01T01:24:00Z,26.8015,-97.4706,0.0,6.3,117.0,7.6,'11111222,11111222,11111222' 
TCOON,ioos:station:TCOON:003:1,2017-08-01T01:30:00Z,26.8015,-97.4706,0.0,6.4,108.0,7.6,'11111222,11111222,11111222' 
TCOON,ioos:station:TCOON:003:1,2017-08-01T01:36:00Z,26.8015,-97.4706,0.0,6.2,105.0,7.4,'11111222,11111222,11111222' 
TCOON,ioos:station:TCOON:003:1,2017-08-01T01:42:00Z,26.8015,-97.4706,0.0,6.9,101.0,7.8,'11111222,11111222,11111222' 
TCOON,ioos:station:TCOON:003:1,2017-08-01T01:48:00Z,26.8015,-97.4706,0.0,5.5,103.0,7.7,'11111222,11111222,11111222' 
TCOON,ioos:station:TCOON:003:1,2017-08-01T01:54:00Z,26.8015,-97.4706,0.0,6.1,95.0,7.7,'11111222,11111222,11111222' 
TCOON,ioos:station:TCOON:003:1,2017-08-01T02:00:00Z,26.8015,-97.4706,0.0,5.9,104.0,7.3,'11111222,11111222,11111222' 
TCOON,ioos:station:TCOON:003:1,2017-08-01T02:06:00Z,26.8015,-97.4706,0.0,5.7,98.0,7.8,'11111222,11111222,11111222' 
TCOON,ioos:station:TCOON:003:1,2017-08-01T02:12:00Z,26.8015,-97.4706,0.0,6.1,107.0,7.2,'11111222,11111222,11111222' 
TCOON,ioos:station:TCOON:003:1,2017-08-01T02:18:00Z,26.8015,-97.4706,0.0,6.1,107.0,7.2,'1111122,1111122,1111122' 
TCOON,ioos:station:TCOON:003:1,2017-08-01T02:24:00Z,26.8015,-97.4706,0.0,6.2,106.0,7.8,'11111222,11111222,11111222' 
TCOON,ioos:station:TCOON:003:1,2017-08-01T02:30:00Z,26.8015,-97.4706,0.0,6.2,105.0,7.4,'11111222,11111222,11111222' 
TCOON,ioos:station:TCOON:003:1,2017-08-01T02:36:00Z,26.8015,-97.4706,0.0,6.2,109.0,7.5,'11111222,11111222,11111222' 
TCOON,ioos:station:TCOON:003:1,2017-08-01T02:42:00Z,26.8015,-97.4706,0.0,6.1,103.0,7.9,'11111222,11111222,11111222' 
TCOON,ioos:station:TCOON:003:1,2017-08-01T02:48:00Z,26.8015,-97.4706,0.0,6.0,104.0,7.2,'11111222,11111222,11111222' 
TCOON,ioos:station:TCOON:003:1,2017-08-01T02:54:00Z,26.8015,-97.4706,0.0,5.4,106.0,6.9,'11111222,11111222,11111222' 
TCOON,ioos:station:TCOON:003:1,2017-08-01T03:00:00Z,26.8015,-97.4706,0.0,5.1,100.0,6.5,'11111222,11111222,11111222' 
TCOON,ioos:station:TCOON:003:1,2017-08-01T03:06:00Z,26.8015,-97.4706,0.0,5.6,103.0,6.9,'11111222,11111222,11111222' 
TCOON,ioos:station:TCOON:003:1,2017-08-01T03:12:00Z,26.8015,-97.4706,0.0,5.3,97.0,6.7,'11111222,11111222,11111222' 
TCOON,ioos:station:TCOON:003:1,2017-08-01T03:18:00Z,26.8015,-97.4706,0.0,5.3,97.0,6.7,'1111122,1111122,1111122' 
TCOON,ioos:station:TCOON:003:1,2017-08-01T03:24:00Z,26.8015,-97.4706,0.0,5.6,100.0,6.4,'11111222,11111222,11111222' 
TCOON,ioos:station:TCOON:003:1,2017-08-01T03:30:00Z,26.8015,-97.4706,0.0,5.8,104.0,7.0,'11111222,11111222,11111222' 
TCOON,ioos:station:TCOON:003:1,2017-08-01T03:36:00Z,26.8015,-97.4706,0.0,6.0,101.0,7.2,'11111222,11111222,11111222' 
TCOON,ioos:station:TCOON:003:1,2017-08-01T03:42:00Z,26.8015,-97.4706,0.0,5.2,100.0,6.6,'11111222,11111222,11111222' 
TCOON,ioos:station:TCOON:003:1,2017-08-01T03:48:00Z,26.8015,-97.4706,0.0,6.0,107.0,6.8,'11111222,11111222,11111222' 
TCOON,ioos:station:TCOON:003:1,2017-08-01T03:54:00Z,26.8015,-97.4706,0.0,4.8,101.0,6.5,'11111222,11111222,11111222' 
TCOON,ioos:station:TCOON:003:1,2017-08-01T04:00:00Z,26.8015,-97.4706,0.0,5.4,104.0,6.3,'11111222,11111222,11111222' 
TCOON,ioos:station:TCOON:003:1,2017-08-01T04:06:00Z,26.8015,-97.4706,0.0,6.0,106.0,6.6,'11111222,11111222,11111222' 
TCOON,ioos:station:TCOON:003:1,2017-08-01T04:12:00Z,26.8015,-97.4706,0.0,5.4,110.0,6.2,'11111222,11111222,11111222' 
TCOON,ioos:station:TCOON:003:1,2017-08-01T04:18:00Z,26.8015,-97.4706,0.0,5.4,110.0,6.2,'1111122,1111122,1111122' 
TCOON,ioos:station:TCOON:003:1,2017-08-01T04:24:00Z,26.8015,-97.4706,0.0,5.3,109.0,6.2,'11111222,11111222,11111222' 
TCOON,ioos:station:TCOON:003:1,2017-08-01T04:30:00Z,26.8015,-97.4706,0.0,5.7,113.0,6.4,'11111222,11111222,11111222' 
TCOON,ioos:station:TCOON:003:1,2017-08-01T04:36:00Z,26.8015,-97.4706,0.0,5.3,108.0,6.3,'11111222,11111222,11111222' 
TCOON,ioos:station:TCOON:003:1,2017-08-01T04:42:00Z,26.8015,-97.4706,0.0,5.2,108.0,6.2,'11111222,11111222,11111222' 
TCOON,ioos:station:TCOON:003:1,2017-08-01T04:48:00Z,26.8015,-97.4706,0.0,5.3,111.0,6.1,'11111222,11111222,11111222' 
TCOON,ioos:station:TCOON:003:1,2017-08-01T04:54:00Z,26.8015,-97.4706,0.0,4.8,110.0,6.3,'11111222,11111222,11111222' 
TCOON,ioos:station:TCOON:003:1,2017-08-01T05:00:00Z,26.8015,-97.4706,0.0,5.2,112.0,6.1,'11111222,11111222,11111222' 
TCOON,ioos:station:TCOON:003:1,2017-08-01T05:06:00Z,26.8015,-97.4706,0.0,5.2,107.0,6.2,'11111222,11111222,11111222' 
TCOON,ioos:station:TCOON:003:1,2017-08-01T05:12:00Z,26.8015,-97.4706,0.0,5.3,106.0,6.0,'11111222,11111222,11111222' 
TCOON,ioos:station:TCOON:003:1,2017-08-01T05:18:00Z,26.8015,-97.4706,0.0,5.3,106.0,6.0,'1111122,1111122,1111122' 
TCOON,ioos:station:TCOON:003:1,2017-08-01T05:24:00Z,26.8015,-97.4706,0.0,4.9,103.0,5.8,'11111222,11111222,11111222' 
TCOON,ioos:station:TCOON:003:1,2017-08-01T05:30:00Z,26.8015,-97.4706,0.0,5.0,107.0,5.6,'11111222,11111222,11111222' 
TCOON,ioos:station:TCOON:003:1,2017-08-01T05:36:00Z,26.8015,-97.4706,0.0,4.4,108.0,5.7,'11111222,11111222,11111222' 
TCOON,ioos:station:TCOON:003:1,2017-08-01T05:42:00Z,26.8015,-97.4706,0.0,4.5,103.0,5.8,'11111222,11111222,11111222' 
TCOON,ioos:station:TCOON:003:1,2017-08-01T05:48:00Z,26.8015,-97.4706,0.0,4.7,102.0,5.7,'11111222,11111222,11111222' 
TCOON,ioos:station:TCOON:003:1,2017-08-01T05:54:00Z,26.8015,-97.4706,0.0,3.8,106.0,5.2,'11111222,11111222,11111222' 
TCOON,ioos:station:TCOON:003:1,2017-08-01T06:00:00Z,26.8015,-97.4706,0.0,4.1,110.0,4.6,'11111222,11111222,11111222' 
TCOON,ioos:station:TCOON:003:1,2017-08-01T06:06:00Z,26.8015,-97.4706,0.0,4.5,112.0,4.9,'11111222,11111222,11111222' 
TCOON,ioos:station:TCOON:003:1,2017-08-01T06:12:00Z,26.8015,-97.4706,0.0,4.0,109.0,5.1,'11111222,11111222,11111222' 
TCOON,ioos:station:TCOON:003:1,2017-08-01T06:18:00Z,26.8015,-97.4706,0.0,4.0,109.0,5.1,'1111122,1111122,1111122' 
TCOON,ioos:station:TCOON:003:1,2017-08-01T06:24:00Z,26.8015,-97.4706,0.0,4.0,110.0,4.9,'11111222,11111222,11111222' 
TCOON,ioos:station:TCOON:003:1,2017-08-01T06:30:00Z,26.8015,-97.4706,0.0,3.9,115.0,4.5,'11111222,11111222,11111222' 
TCOON,ioos:station:TCOON:003:1,2017-08-01T06:36:00Z,26.8015,-97.4706,0.0,4.0,110.0,4.6,'11111222,11111222,11111222' 
TCOON,ioos:station:TCOON:003:1,2017-08-01T06:42:00Z,26.8015,-97.4706,0.0,4.1,124.0,4.8,'11111222,11111222,11111222' 
TCOON,ioos:station:TCOON:003:1,2017-08-01T06:48:00Z,26.8015,-97.4706,0.0,4.2,123.0,4.8,'11111222,11111222,11111222' 
TCOON,ioos:station:TCOON:003:1,2017-08-01T06:54:00Z,26.8015,-97.4706,0.0,4.5,127.0,5.3,'11111222,11111222,11111222' 
TCOON,ioos:station:TCOON:003:1,2017-08-01T07:00:00Z,26.8015,-97.4706,0.0,4.1,126.0,4.9,'11111222,11111222,11111222' 
TCOON,ioos:station:TCOON:003:1,2017-08-01T07:06:00Z,26.8015,-97.4706,0.0,4.5,123.0,5.2,'11111222,11111222,11111222' 
TCOON,ioos:station:TCOON:003:1,2017-08-01T07:12:00Z,26.8015,-97.4706,0.0,4.7,127.0,5.5,'11111222,11111222,11111222' 
TCOON,ioos:station:TCOON:003:1,2017-08-01T07:18:00Z,26.8015,-97.4706,0.0,4.7,127.0,5.5,'1111122,1111122,1111122' 
TCOON,ioos:station:TCOON:003:1,2017-08-01T07:24:00Z,26.8015,-97.4706,0.0,4.3,125.0,4.9,'11111222,11111222,11111222' 
TCOON,ioos:station:TCOON:003:1,2017-08-01T07:30:00Z,26.8015,-97.4706,0.0,4.6,121.0,5.4,'11111222,11111222,11111222' 
TCOON,ioos:station:TCOON:003:1,2017-08-01T07:36:00Z,26.8015,-97.4706,0.0,4.5,119.0,4.9,'11111222,11111222,11111222' 
TCOON,ioos:station:TCOON:003:1,2017-08-01T07:42:00Z,26.8015,-97.4706,0.0,3.8,120.0,5.0,'11111222,11111222,11111222' 
TCOON,ioos:station:TCOON:003:1,2017-08-01T07:48:00Z,26.8015,-97.4706,0.0,3.9,124.0,4.6,'11111222,11111222,11111222' 
TCOON,ioos:station:TCOON:003:1,2017-08-01T07:54:00Z,26.8015,-97.4706,0.0,3.9,121.0,4.6,'11111222,11111222,11111222' 
TCOON,ioos:station:TCOON:003:1,2017-08-01T08:00:00Z,26.8015,-97.4706,0.0,3.9,127.0,4.5,'11111222,11111222,11111222' 
TCOON,ioos:station:TCOON:003:1,2017-08-01T08:06:00Z,26.8015,-97.4706,0.0,4.0,133.0,4.9,'11111222,11111222,11111222' 
TCOON,ioos:station:TCOON:003:1,2017-08-01T08:12:00Z,26.8015,-97.4706,0.0,4.2,130.0,5.1,'11111222,11111222,11111222' 
TCOON,ioos:station:TCOON:003:1,2017-08-01T08:18:00Z,26.8015,-97.4706,0.0,4.2,130.0,5.1,'1111122,1111122,1111122' 
TCOON,ioos:station:TCOON:003:1,2017-08-01T08:24:00Z,26.8015,-97.4706,0.0,3.9,128.0,4.6,'11111222,11111222,11111222' 
TCOON,ioos:station:TCOON:003:1,2017-08-01T08:30:00Z,26.8015,-97.4706,0.0,3.3,137.0,4.0,'11111222,11111222,11111222' 
TCOON,ioos:station:TCOON:003:1,2017-08-01T08:36:00Z,26.8015,-97.4706,0.0,3.2,132.0,3.7,'11111222,11111222,11111222' 
TCOON,ioos:station:TCOON:003:1,2017-08-01T08:42:00Z,26.8015,-97.4706,0.0,3.1,136.0,3.9,'11111222,11111222,11111222' 
TCOON,ioos:station:TCOON:003:1,2017-08-01T08:48:00Z,26.8015,-97.4706,0.0,3.0,130.0,3.6,'11111222,11111222,11111222' 
TCOON,ioos:station:TCOON:003:1,2017-08-01T08:54:00Z,26.8015,-97.4706,0.0,3.1,128.0,3.8,'11111222,11111222,11111222' 
TCOON,ioos:station:TCOON:003:1,2017-08-01T09:00:00Z,26.8015,-97.4706,0.0,3.2,128.0,3.7,'11111222,11111222,11111222' 
TCOON,ioos:station:TCOON:003:1,2017-08-01T09:06:00Z,26.8015,-97.4706,0.0,3.1,127.0,3.7,'11111222,11111222,11111222' 
TCOON,ioos:station:TCOON:003:1,2017-08-01T09:12:00Z,26.8015,-97.4706,0.0,2.4,133.0,3.2,'11111222,11111222,11111222' 
TCOON,ioos:station:TCOON:003:1,2017-08-01T09:18:00Z,26.8015,-97.4706,0.0,2.4,133.0,3.2,'1111122,1111122,1111122' 
TCOON,ioos:station:TCOON:003:1,2017-08-01T09:24:00Z,26.8015,-97.4706,0.0,2.7,127.0,3.3,'11111222,11111222,11111222' 
TCOON,ioos:station:TCOON:003:1,2017-08-01T09:30:00Z,26.8015,-97.4706,0.0,2.3,130.0,3.1,'11111222,11111222,11111222' 
TCOON,ioos:station:TCOON:003:1,2017-08-01T09:36:00Z,26.8015,-97.4706,0.0,2.5,122.0,2.9,'11111222,11111222,11111222' 
TCOON,ioos:station:TCOON:003:1,2017-08-01T09:42:00Z,26.8015,-97.4706,0.0,2.1,138.0,2.8,'11111222,11111222,11111222' 
TCOON,ioos:station:TCOON:003:1,2017-08-01T09:48:00Z,26.8015,-97.4706,0.0,2.1,131.0,2.4,'11111222,11111222,11111222' 
TCOON,ioos:station:TCOON:003:1,2017-08-01T09:54:00Z,26.8015,-97.4706,0.0,2.3,134.0,2.8,'11111222,11111222,11111222' 
TCOON,ioos:station:TCOON:003:1,2017-08-01T10:00:00Z,26.8015,-97.4706,0.0,2.2,124.0,2.8,'11111222,11111222,11111222' 
TCOON,ioos:station:TCOON:003:1,2017-08-01T10:06:00Z,26.8015,-97.4706,0.0,2.2,116.0,3.1,'11111222,11111222,11111222' 
TCOON,ioos:station:TCOON:003:1,2017-08-01T10:12:00Z,26.8015,-97.4706,0.0,2.1,125.0,2.8,'11111222,11111222,11111222' 
TCOON,ioos:station:TCOON:003:1,2017-08-01T10:18:00Z,26.8015,-97.4706,0.0,2.1,125.0,2.8,'1111122,1111122,1111122' 
TCOON,ioos:station:TCOON:003:1,2017-08-01T10:24:00Z,26.8015,-97.4706,0.0,1.9,126.0,2.7,'11111222,11111222,11111222' 
TCOON,ioos:station:TCOON:003:1,2017-08-01T10:30:00Z,26.8015,-97.4706,0.0,2.1,122.0,2.4,'11111222,11111222,11111222' 
TCOON,ioos:station:TCOON:003:1,2017-08-01T10:36:00Z,26.8015,-97.4706,0.0,1.8,121.0,2.4,'11111222,11111222,11111222' 
TCOON,ioos:station:TCOON:003:1,2017-08-01T10:42:00Z,26.8015,-97.4706,0.0,1.9,118.0,2.5,'11111222,11111222,11111222' 
TCOON,ioos:station:TCOON:003:1,2017-08-01T10:48:00Z,26.8015,-97.4706,0.0,2.0,106.0,2.5,'11111222,11111222,11111222' 
TCOON,ioos:station:TCOON:003:1,2017-08-01T10:54:00Z,26.8015,-97.4706,0.0,1.9,113.0,2.5,'11111222,11111222,11111222' 
TCOON,ioos:station:TCOON:003:1,2017-08-01T11:00:00Z,26.8015,-97.4706,0.0,1.8,103.0,2.3,'11111222,11111222,11111222' 
TCOON,ioos:station:TCOON:003:1,2017-08-01T11:06:00Z,26.8015,-97.4706,0.0,1.7,114.0,2.0,'11111222,11111222,11111222' 
TCOON,ioos:station:TCOON:003:1,2017-08-01T11:12:00Z,26.8015,-97.4706,0.0,0.9,264.0,1.9,'11111222,11111222,11111222' 
TCOON,ioos:station:TCOON:003:1,2017-08-01T11:18:00Z,26.8015,-97.4706,0.0,0.9,264.0,1.9,'1111122,1111122,1111122' 
TCOON,ioos:station:TCOON:003:1,2017-08-01T11:24:00Z,26.8015,-97.4706,0.0,0.9,241.0,1.2,'11111222,11111222,11111222' 
TCOON,ioos:station:TCOON:003:1,2017-08-01T11:30:00Z,26.8015,-97.4706,0.0,0.4,205.0,1.2,'11111222,11111222,11111222' 
TCOON,ioos:station:TCOON:003:1,2017-08-01T11:36:00Z,26.8015,-97.4706,0.0,0.4,233.0,1.4,'11111222,11111222,11111222' 
TCOON,ioos:station:TCOON:003:1,2017-08-01T11:42:00Z,26.8015,-97.4706,0.0,1.4,268.0,1.6,'11111222,11111222,11111222' 
TCOON,ioos:station:TCOON:003:1,2017-08-01T11:48:00Z,26.8015,-97.4706,0.0,1.4,280.0,1.7,'11111222,11111222,11111222' 
TCOON,ioos:station:TCOON:003:1,2017-08-01T11:54:00Z,26.8015,-97.4706,0.0,1.0,296.0,1.5,'11111222,11111222,11111222' 
TCOON,ioos:station:TCOON:003:1,2017-08-01T12:00:00Z,26.8015,-97.4706,0.0,0.9,310.0,1.3,'11111222,11111222,11111222' 
TCOON,ioos:station:TCOON:003:1,2017-08-01T12:06:00Z,26.8015,-97.4706,0.0,0.8,317.0,1.3,'11111222,11111222,11111222' 
TCOON,ioos:station:TCOON:003:1,2017-08-01T12:12:00Z,26.8015,-97.4706,0.0,0.8,299.0,1.2,'11111222,11111222,11111222' 
TCOON,ioos:station:TCOON:003:1,2017-08-01T12:18:00Z,26.8015,-97.4706,0.0,0.8,299.0,1.2,'1111122,1111122,1111122' 
TCOON,ioos:station:TCOON:003:1,2017-08-01T12:24:00Z,26.8015,-97.4706,0.0,1.2,352.0,1.9,'11111222,11111222,11111222' 
TCOON,ioos:station:TCOON:003:1,2017-08-01T12:30:00Z,26.8015,-97.4706,0.0,1.8,347.0,2.0,'11111222,11111222,11111222' 
TCOON,ioos:station:TCOON:003:1,2017-08-01T12:36:00Z,26.8015,-97.4706,0.0,1.4,356.0,1.7,'11111222,11111222,11111222' 
TCOON,ioos:station:TCOON:003:1,2017-08-01T12:42:00Z,26.8015,-97.4706,0.0,1.3,340.0,1.7,'11111222,11111222,11111222' 
TCOON,ioos:station:TCOON:003:1,2017-08-01T12:48:00Z,26.8015,-97.4706,0.0,1.1,327.0,1.3,'11111222,11111222,11111222' 
TCOON,ioos:station:TCOON:003:1,2017-08-01T12:54:00Z,26.8015,-97.4706,0.0,1.5,339.0,1.8,'11111222,11111222,11111222' 
TCOON,ioos:station:TCOON:003:1,2017-08-01T13:00:00Z,26.8015,-97.4706,0.0,1.1,309.0,1.9,'11111222,11111222,11111222' 
TCOON,ioos:station:TCOON:003:1,2017-08-01T13:06:00Z,26.8015,-97.4706,0.0,0.9,330.0,1.1,'11111222,11111222,11111222' 
TCOON,ioos:station:TCOON:003:1,2017-08-01T13:12:00Z,26.8015,-97.4706,0.0,1.7,306.0,2.1,'11111222,11111222,11111222' 
TCOON,ioos:station:TCOON:003:1,2017-08-01T13:18:00Z,26.8015,-97.4706,0.0,1.7,306.0,2.1,'1111122,1111122,1111122' 
TCOON,ioos:station:TCOON:003:1,2017-08-01T13:24:00Z,26.8015,-97.4706,0.0,1.1,313.0,1.3,'11111222,11111222,11111222' 
TCOON,ioos:station:TCOON:003:1,2017-08-01T13:30:00Z,26.8015,-97.4706,0.0,1.7,315.0,2.1,'11111222,11111222,11111222' 
TCOON,ioos:station:TCOON:003:1,2017-08-01T13:36:00Z,26.8015,-97.4706,0.0,2.6,311.0,2.9,'11111222,11111222,11111222' 
TCOON,ioos:station:TCOON:003:1,2017-08-01T13:42:00Z,26.8015,-97.4706,0.0,1.2,301.0,2.8,'11111222,11111222,11111222' 
TCOON,ioos:station:TCOON:003:1,2017-08-01T13:48:00Z,26.8015,-97.4706,0.0,1.6,322.0,2.0,'11111222,11111222,11111222' 
TCOON,ioos:station:TCOON:003:1,2017-08-01T13:54:00Z,26.8015,-97.4706,0.0,1.2,328.0,1.6,'11111222,11111222,11111222' 
TCOON,ioos:station:TCOON:003:1,2017-08-01T14:00:00Z,26.8015,-97.4706,0.0,0.9,322.0,1.5,'11111222,11111222,11111222' 
TCOON,ioos:station:TCOON:003:1,2017-08-01T14:06:00Z,26.8015,-97.4706,0.0,0.7,347.0,1.2,'11111222,11111222,11111222' 
TCOON,ioos:station:TCOON:003:1,2017-08-01T14:12:00Z,26.8015,-97.4706,0.0,0.4,293.0,0.6,'11111222,11111222,11111222' 
TCOON,ioos:station:TCOON:003:1,2017-08-01T14:18:00Z,26.8015,-97.4706,0.0,0.4,293.0,0.6,'1111122,1111122,1111122' 
TCOON,ioos:station:TCOON:003:1,2017-08-01T14:24:00Z,26.8015,-97.4706,0.0,0.4,87.0,1.0,'11111222,11111222,11111222' 
TCOON,ioos:station:TCOON:003:1,2017-08-01T14:30:00Z,26.8015,-97.4706,0.0,0.0,90.0,0.3,'11111222,11111222,11111222' 
TCOON,ioos:station:TCOON:003:1,2017-08-01T14:36:00Z,26.8015,-97.4706,0.0,1.2,51.0,1.7,'11111222,11111222,11111222' 
TCOON,ioos:station:TCOON:003:1,2017-08-01T14:42:00Z,26.8015,-97.4706,0.0,1.2,70.0,2.4,'11111222,11111222,11111222' 
TCOON,ioos:station:TCOON:003:1,2017-08-01T14:48:00Z,26.8015,-97.4706,0.0,0.8,87.0,2.1,'11111222,11111222,11111222' 
TCOON,ioos:station:TCOON:003:1,2017-08-01T14:54:00Z,26.8015,-97.4706,0.0,1.2,348.0,1.8,'11111222,11111222,11111222' 
TCOON,ioos:station:TCOON:003:1,2017-08-01T15:00:00Z,26.8015,-97.4706,0.0,0.6,338.0,1.4,'11111222,11111222,11111222' 
TCOON,ioos:station:TCOON:003:1,2017-08-01T15:06:00Z,26.8015,-97.4706,0.0,0.0,25.0,0.4,'11111222,11111222,11111222' 
TCOON,ioos:station:TCOON:003:1,2017-08-01T15:12:00Z,26.8015,-97.4706,0.0,1.0,1.0,1.4,'11111222,11111222,11111222' 
TCOON,ioos:station:TCOON:003:1,2017-08-01T15:18:00Z,26.8015,-97.4706,0.0,1.0,1.0,1.4,'1111122,1111122,1111122' 
TCOON,ioos:station:TCOON:003:1,2017-08-01T15:24:00Z,26.8015,-97.4706,0.0,0.6,353.0,1.0,'11111222,11111222,11111222' 
TCOON,ioos:station:TCOON:003:1,2017-08-01T15:30:00Z,26.8015,-97.4706,0.0,0.7,328.0,1.1,'11111222,11111222,11111222' 
TCOON,ioos:station:TCOON:003:1,2017-08-01T15:36:00Z,26.8015,-97.4706,0.0,0.0,349.0,0.7,'11111222,11111222,11111222' 
TCOON,ioos:station:TCOON:003:1,2017-08-01T15:42:00Z,26.8015,-97.4706,0.0,0.5,52.0,0.7,'11111222,11111222,11111222' 
TCOON,ioos:station:TCOON:003:1,2017-08-01T15:48:00Z,26.8015,-97.4706,0.0,0.0,53.0,0.8,'11111222,11111222,11111222' 
TCOON,ioos:station:TCOON:003:1,2017-08-01T15:54:00Z,26.8015,-97.4706,0.0,0.2,119.0,0.4,'11111222,11111222,11111222' 
TCOON,ioos:station:TCOON:003:1,2017-08-01T16:00:00Z,26.8015,-97.4706,0.0,1.1,135.0,2.1,'11111222,11111222,11111222' 
TCOON,ioos:station:TCOON:003:1,2017-08-01T16:06:00Z,26.8015,-97.4706,0.0,2.4,117.0,3.5,'11111222,11111222,11111222' 
TCOON,ioos:station:TCOON:003:1,2017-08-01T16:12:00Z,26.8015,-97.4706,0.0,2.9,120.0,3.7,'11111222,11111222,11111222' 
TCOON,ioos:station:TCOON:003:1,2017-08-01T16:18:00Z,26.8015,-97.4706,0.0,2.9,120.0,3.7,'1111122,1111122,1111122' 
TCOON,ioos:station:TCOON:003:1,2017-08-01T16:24:00Z,26.8015,-97.4706,0.0,1.9,116.0,3.1,'11111222,11111222,11111222' 
TCOON,ioos:station:TCOON:003:1,2017-08-01T16:30:00Z,26.8015,-97.4706,0.0,2.8,129.0,3.6,'11111222,11111222,11111222' 
TCOON,ioos:station:TCOON:003:1,2017-08-01T16:36:00Z,26.8015,-97.4706,0.0,3.3,114.0,4.7,'11111222,11111222,11111222' 
TCOON,ioos:station:TCOON:003:1,2017-08-01T16:42:00Z,26.8015,-97.4706,0.0,2.1,98.0,3.3,'11111222,11111222,11111222' 
TCOON,ioos:station:TCOON:003:1,2017-08-01T16:48:00Z,26.8015,-97.4706,0.0,2.1,107.0,2.9,'11111222,11111222,11111222' 
TCOON,ioos:station:TCOON:003:1,2017-08-01T16:54:00Z,26.8015,-97.4706,0.0,3.1,96.0,4.1,'11111222,11111222,11111222' 
TCOON,ioos:station:TCOON:003:1,2017-08-01T17:00:00Z,26.8015,-97.4706,0.0,3.5,62.0,5.1,'11111222,11111222,11111222' 
TCOON,ioos:station:TCOON:003:1,2017-08-01T17:06:00Z,26.8015,-97.4706,0.0,3.6,98.0,5.6,'11111222,11111222,11111222' 
TCOON,ioos:station:TCOON:003:1,2017-08-01T17:12:00Z,26.8015,-97.4706,0.0,3.8,94.0,5.6,'11111222,11111222,11111222' 
TCOON,ioos:station:TCOON:003:1,2017-08-01T17:18:00Z,26.8015,-97.4706,0.0,3.8,94.0,5.6,'1111122,1111122,1111122' 
TCOON,ioos:station:TCOON:003:1,2017-08-01T17:24:00Z,26.8015,-97.4706,0.0,4.0,100.0,5.7,'11111222,11111222,11111222' 
TCOON,ioos:station:TCOON:003:1,2017-08-01T17:30:00Z,26.8015,-97.4706,0.0,1.8,69.0,4.4,'11111222,11111222,11111222' 
TCOON,ioos:station:TCOON:003:1,2017-08-01T17:36:00Z,26.8015,-97.4706,0.0,2.5,114.0,4.1,'11111222,11111222,11111222' 
TCOON,ioos:station:TCOON:003:1,2017-08-01T17:42:00Z,26.8015,-97.4706,0.0,3.3,110.0,5.6,'11111222,11111222,11111222' 
TCOON,ioos:station:TCOON:003:1,2017-08-01T17:48:00Z,26.8015,-97.4706,0.0,5.2,90.0,6.8,'11111222,11111222,11111222' 
TCOON,ioos:station:TCOON:003:1,2017-08-01T17:54:00Z,26.8015,-97.4706,0.0,4.9,89.0,7.6,'11111222,11111222,11111222' 
TCOON,ioos:station:TCOON:003:1,2017-08-01T18:00:00Z,26.8015,-97.4706,0.0,6.6,74.0,8.0,'11111222,11111222,11111222' 
TCOON,ioos:station:TCOON:003:1,2017-08-01T18:06:00Z,26.8015,-97.4706,0.0,4.4,66.0,8.8,'11111222,11111222,11111222' 
TCOON,ioos:station:TCOON:003:1,2017-08-01T18:12:00Z,26.8015,-97.4706,0.0,5.0,84.0,6.5,'11111222,11111222,11111222' 
TCOON,ioos:station:TCOON:003:1,2017-08-01T18:18:00Z,26.8015,-97.4706,0.0,5.7,75.0,7.7,'11111222,11111222,11111222' 
TCOON,ioos:station:TCOON:003:1,2017-08-01T18:24:00Z,26.8015,-97.4706,0.0,5.4,76.0,8.4,'11111222,11111222,11111222' 
TCOON,ioos:station:TCOON:003:1,2017-08-01T18:30:00Z,26.8015,-97.4706,0.0,5.7,88.0,7.3,'11111222,11111222,11111222' 
TCOON,ioos:station:TCOON:003:1,2017-08-01T18:36:00Z,26.8015,-97.4706,0.0,6.4,75.0,8.1,'11111222,11111222,11111222' 
TCOON,ioos:station:TCOON:003:1,2017-08-01T18:42:00Z,26.8015,-97.4706,0.0,5.8,91.0,7.9,'11111222,11111222,11111222' 
TCOON,ioos:station:TCOON:003:1,2017-08-01T18:48:00Z,26.8015,-97.4706,0.0,6.4,81.0,7.6,'11111222,11111222,11111222' 
TCOON,ioos:station:TCOON:003:1,2017-08-01T18:54:00Z,26.8015,-97.4706,0.0,5.9,65.0,7.6,'11111222,11111222,11111222' 
TCOON,ioos:station:TCOON:003:1,2017-08-01T19:00:00Z,26.8015,-97.4706,0.0,6.0,88.0,8.0,'11111222,11111222,11111222' 
TCOON,ioos:station:TCOON:003:1,2017-08-01T19:06:00Z,26.8015,-97.4706,0.0,6.2,68.0,8.4,'11111222,11111222,11111222' 
TCOON,ioos:station:TCOON:003:1,2017-08-01T19:12:00Z,26.8015,-97.4706,0.0,7.0,71.0,8.7,'11111222,11111222,11111222' 
TCOON,ioos:station:TCOON:003:1,2017-08-01T19:18:00Z,26.8015,-97.4706,0.0,6.5,92.0,7.8,'11111222,11111222,11111222' 
TCOON,ioos:station:TCOON:003:1,2017-08-01T19:24:00Z,26.8015,-97.4706,0.0,6.4,66.0,8.3,'11111222,11111222,11111222' 
TCOON,ioos:station:TCOON:003:1,2017-08-01T19:30:00Z,26.8015,-97.4706,0.0,6.4,66.0,8.3,'1111122,1111122,1111122' 
TCOON,ioos:station:TCOON:003:1,2017-08-01T19:36:00Z,26.8015,-97.4706,0.0,6.8,80.0,8.8,'11111222,11111222,11111222' 
TCOON,ioos:station:TCOON:003:1,2017-08-01T19:42:00Z,26.8015,-97.4706,0.0,7.4,78.0,9.1,'11111222,11111222,11111222' 
TCOON,ioos:station:TCOON:003:1,2017-08-01T19:48:00Z,26.8015,-97.4706,0.0,7.3,83.0,9.7,'11111222,11111222,11111222' 
TCOON,ioos:station:TCOON:003:1,2017-08-01T19:54:00Z,26.8015,-97.4706,0.0,7.0,72.0,9.7,'11111222,11111222,11111222' 
TCOON,ioos:station:TCOON:003:1,2017-08-01T20:00:00Z,26.8015,-97.4706,0.0,6.8,83.0,9.0,'11111222,11111222,11111222' 
TCOON,ioos:station:TCOON:003:1,2017-08-01T20:06:00Z,26.8015,-97.4706,0.0,6.1,92.0,8.3,'11111222,11111222,11111222' 
TCOON,ioos:station:TCOON:003:1,2017-08-01T20:12:00Z,26.8015,-97.4706,0.0,6.5,77.0,8.9,'11111222,11111222,11111222' 
TCOON,ioos:station:TCOON:003:1,2017-08-01T20:18:00Z,26.8015,-97.4706,0.0,6.5,91.0,8.0,'11111222,11111222,11111222' 
TCOON,ioos:station:TCOON:003:1,2017-08-01T20:24:00Z,26.8015,-97.4706,0.0,6.5,91.0,8.0,'1111122,1111122,1111122' 